Terminal Aerodrome Forecast
Issued by NWS Pittsburgh, PA

Current Version | Previous Version | Graphics & Text | Print | Product List | Glossary On
Versions: 1 2 3 4 5 6 7 8 9 10 11 12 13 14 15 16 17 18 19 20 21 22 23 24 25
749
FTUS41 KPBZ 230520
TAFPIT
TAF
KPIT 230520Z 2306/2412 03003KT P6SM SKC
     FM231500 10005KT P6SM SKC
     FM240900 17008KT P6SM BKN100=

USA.gov is the U.S. government's official web portal to all federal, state and local government web resources and services.